Flag for USA

Past Weather in El Monte, California, USA — Yesterday and Last 2 Weeks

Now
78 °F

Sunny.


Feels Like: 78 °F
Forecast: 97 / 66 °F
Wind: 5 mph from North

Location: Fullerton Municipal Airport
Current Time: Sep 18, 2020 at 10:08:05 am
Latest Report: Sep 18, 2020 at 8:53 am
Visibility: 10 mi
Pressure29.86 "Hg
Humidity: 32%
Dew Point: 46 °F
Location of El MonteLocation

Past Weather in El Monte — Graph

°F

El Monte Temperature Yesterday

Maximum temperature yesterday: 98 °F (at 2:53 pm)
Minimum temperature yesterday: 62 °F (at 4:53 am)
Average temperature yesterday: 78 °F

High & Low Weather Summary for the Past Weeks

 TemperatureHumidityPressure
High108 °F (Sep 5, 2:53 pm)86% (Sep 10, 5:53 am)30.03 "Hg (Sep 10, 5:53 am)
Low60 °F (Sep 12, 6:53 am)11% (Sep 17, 2:53 pm)29.65 "Hg (Sep 8, 3:53 pm)
Average77 °F53%29.86 "Hg
* Reported Sep 3 8:09 am — Sep 18 8:53 am, El Monte. Weather by CustomWeather, © 2020

Note: Actual official high and low records may vary slightly from our data, if they occured in-between our weather recording intervals... More about our weather records

El Monte Weather History for the Previous 24 Hours

Scroll right to see more
 ConditionsComfort  
Time TempWeatherWind HumidityBarometerVisibility
8:53 am
Fri, Sep 18
78 °FSunny.5 mph32%29.86 "Hg10 mi
7:53 am72 °FSunny.3 mph40%29.85 "Hg10 mi
6:53 am67 °FSunny.No wind51%29.86 "Hg10 mi
5:53 am68 °FClear.No wind47%29.85 "Hg10 mi
4:53 am70 °FClear.No wind39%29.84 "Hg10 mi
3:53 am70 °FClear.No wind37%29.84 "Hg10 mi
2:53 am69 °FClear.6 mph39%29.85 "Hg10 mi
1:53 am70 °FClear.No wind47%29.85 "Hg10 mi
12:53 am69 °FClear.No wind51%29.85 "Hg10 mi
11:53 pm
Thu, Sep 17
72 °FClear.No wind40%29.85 "Hg10 mi
10:53 pm72 °FClear.No wind48%29.86 "Hg10 mi
9:53 pm73 °FClear.No wind44%29.87 "Hg10 mi
8:53 pm76 °FClear.No wind42%29.86 "Hg10 mi
7:53 pm79 °FClear.No wind35%29.85 "Hg10 mi
6:53 pm84 °FSunny.5 mph20%29.83 "Hg10 mi
5:53 pm91 °FSunny.6 mph16%29.83 "Hg10 mi
4:53 pm95 °FSunny.5 mph14%29.83 "Hg10 mi
3:53 pm96 °FSunny.6 mph23%29.83 "Hg10 mi
2:53 pm98 °FSunny.3 mph11%29.85 "Hg10 mi
1:53 pm96 °FSunny.5 mph19%29.87 "Hg10 mi
12:53 pm95 °FSunny.3 mph13%29.89 "Hg10 mi
11:53 am92 °FSunny.No wind19%29.92 "Hg10 mi
10:53 am85 °FSunny.No wind29%29.93 "Hg10 mi
Weather by CustomWeather, © 2020

See weather overview